EW6959 Weather Reports


time (UTC)temp
C
wind
direction
speed
KPH
gust
KPH
rain 1hr
cm
rain 24hr
cm
rain mn
cm
humidity
%
barometer
mb
20260505090030 11 232 0.0 1.6 0.00 0.00 0.00 88 1013.0
20260505084529 11 223 0.0 4.8 0.00 0.00 0.00 88 1012.8
20260505083026 11 237 0.0 3.2 0.00 0.00 0.00 87 1012.8
20260505081521 11 255 0.0 0.0 0.00 0.00 0.00 86 1012.7
20260505080022 11 255 0.0 0.0 0.00 0.00 0.00 86 1012.6
20260505074517 11 255 0.0 0.0 0.00 0.00 0.00 85 1012.5
20260505073014 12 255 0.0 0.0 0.00 0.00 0.00 85 1012.4
20260505071512 12 255 0.0 0.0 0.00 0.00 0.00 84 1012.2
20260505070008 12 255 0.0 0.0 0.00 0.00 0.00 84 1012.1
20260505064508 12 255 0.0 0.0 0.00 0.00 0.00 83 1011.9
20260505063005 13 256 0.0 0.0 0.00 0.00 0.00 82 1011.7
20260505061508 13 355 0.0 0.0 0.00 0.00 0.00 80 1011.6
20260505060002 13 357 0.0 0.0 0.00 0.00 0.00 79 1011.4
20260505054501 14 357 0.0 0.0 0.00 0.00 0.00 78 1011.2
20260505053100 15 357 0.0 0.0 0.00 0.00 0.00 77 1011.2
20260505051613 15 357 0.0 0.0 0.00 0.00 0.00 76 1011.0
20260505041556 17 198 0.0 1.6 0.00 0.00 0.00 70 1010.5
20260505040054 17 68 0.0 0.0 0.00 0.00 0.00 68 1010.4
20260505034553 18 17 0.0 1.6 0.00 0.00 0.00 66 1010.2
20260505033053 18 217 0.0 1.6 0.00 0.00 0.00 64 1009.9
20260505031557 20 227 0.0 3.2 0.00 0.00 0.00 62 1009.7
20260505030052 20 271 0.0 1.6 0.00 0.00 0.00 60 1009.5
20260505024554 21 1 0.0 3.2 0.00 0.00 0.00 59 1009.2
20260505023038 21 356 0.0 4.8 0.00 0.00 0.00 57 1009.1
20260505021538 22 356 1.6 9.7 0.00 0.00 0.00 55 1009.1
20260505020037 23 359 1.6 6.4 0.00 0.00 0.00 54 1009.0
20260505014537 23 4 0.0 4.8 0.00 0.00 0.00 53 1009.0
20260505013035 25 348 0.0 12.9 0.00 0.00 0.00 52 1008.9
20260505011534 25 15 3.2 11.3 0.00 0.00 0.00 51 1008.9
20260505010036 26 352 3.2 12.9 0.00 0.00 0.00 50 1008.9
20260505004534 26 360 3.2 12.9 0.00 0.00 0.00 49 1008.8
20260505003031 27 359 1.6 9.7 0.00 0.00 0.00 49 1008.9
20260505001532 27 348 0.0 8.0 0.00 0.00 0.00 46 1008.9
20260505000036 28 345 0.0 4.8 0.00 0.00 0.00 46 1008.7
20260504234534 28 344 0.0 9.7 0.00 0.00 0.00 47 1008.8
20260504233030 28 360 0.0 8.0 0.00 0.00 0.00 45 1008.9
20260504231529 28 271 0.0 12.9 0.00 0.00 0.00 45 1009.0
20260504230029 28 341 1.6 9.7 0.00 0.00 0.00 43 1009.2
20260504224528 29 358 0.0 12.9 0.00 0.00 0.00 45 1009.2
20260504223027 29 217 0.0 8.0 0.00 0.00 0.00 45 1009.2
20260504221526 29 13 0.0 8.0 0.00 0.00 0.00 45 1009.4
20260504220026 28 1 0.0 9.7 0.00 0.00 0.00 44 1009.5
20260504214524 28 2 0.0 6.4 0.00 0.00 0.00 48 1009.6
20260504213024 29 4 4.8 16.1 0.00 0.00 0.00 42 1009.7
20260504211521 29 28 0.0 6.4 0.00 0.00 0.00 44 1009.7
20260504210019 28 193 0.0 4.8 0.00 0.00 0.00 45 1009.8
20260504204516 28 258 0.0 8.0 0.00 0.00 0.00 45 1009.8
20260504203020 27 359 0.0 11.3 0.00 0.00 0.00 42 1010.0
20260504201510 27 340 0.0 4.8 0.00 0.00 0.00 47 1009.9
20260504200006 27 349 1.6 8.0 0.00 0.00 0.00 41 1010.1
20260504194505 26 21 0.0 6.4 0.00 0.00 0.00 43 1010.2
20260504193059 26 2 1.6 8.0 0.00 0.00 0.00 46 1010.2
20260504191555 25 338 1.6 4.8 0.00 0.00 0.00 45 1010.4
20260504190121 24 354 0.0 6.4 0.00 0.00 0.00 46 1010.5
20260504184549 23 357 1.6 4.8 0.00 0.00 0.00 46 1010.7
20260504183046 23 359 0.0 11.3 0.00 0.00 0.00 50 1010.7
20260504181542 22 342 0.0 3.2 0.00 0.00 0.00 53 1010.7
20260504180039 22 350 0.0 3.2 0.00 0.00 0.00 56 1010.7
20260504174533 21 355 0.0 4.8 0.00 0.00 0.00 58 1010.7
20260504173029 20 359 0.0 8.0 0.00 0.00 0.00 59 1010.8
20260504171526 20 319 0.0 6.4 0.00 0.00 0.00 61 1010.7